Time,TemperatureF,DewpointF,PressureIn,WindDirection,WindDirectionDegrees,WindSpeedMPH,WindSpeedGustMPH,Humidity,HourlyPrecipIn,Conditions,Clouds,dailyrainin,SoftwareType,DateUTC
2013-01-10 00:00:00,72.9,69.5,30.26,East,81,3.0,-999.0,89,0.00,,,0.00,Wunderground v.1.15,2013-01-10 05:00:00,
2013-01-10 00:10:00,72.9,69.5,30.26,ENE,74,3.0,-999.0,89,0.00,,,0.00,Wunderground v.1.15,2013-01-10 05:10:00,
2013-01-10 00:15:00,72.8,69.4,30.25,ENE,71,2.0,-999.0,89,0.00,,,0.00,Wunderground v.1.15,2013-01-10 05:15:00,
2013-01-10 00:20:00,72.9,69.5,30.26,ENE,71,2.0,-999.0,89,0.00,,,0.00,Wunderground v.1.15,2013-01-10 05:20:00,
2013-01-10 00:25:00,72.9,69.5,30.25,ENE,71,2.0,-999.0,89,0.00,,,0.00,Wunderground v.1.15,2013-01-10 05:25:00,
2013-01-10 00:30:00,72.9,69.5,30.25,East,85,2.0,-999.0,89,0.00,,,0.00,Wunderground v.1.15,2013-01-10 05:30:00,
2013-01-10 00:40:00,72.9,69.8,30.25,ENE,71,2.0,-999.0,90,0.00,,,0.00,Wunderground v.1.15,2013-01-10 05:40:00,
2013-01-10 00:45:00,72.9,69.8,30.25,ENE,69,1.0,-999.0,90,0.00,,,0.00,Wunderground v.1.15,2013-01-10 05:45:00,
2013-01-10 00:50:00,72.8,69.7,30.25,ENE,68,1.0,-999.0,90,0.00,,,0.00,Wunderground v.1.15,2013-01-10 05:50:00,
2013-01-10 00:55:00,72.7,69.6,30.25,ENE,68,1.0,-999.0,90,0.00,,,0.00,Wunderground v.1.15,2013-01-10 05:55:00,
2013-01-10 01:00:00,72.6,69.5,30.25,ENE,69,1.0,-999.0,90,0.00,,,0.00,Wunderground v.1.15,2013-01-10 06:00:00,
2013-01-10 01:10:00,72.4,69.6,30.25,ENE,74,2.0,-999.0,91,0.00,,,0.00,Wunderground v.1.15,2013-01-10 06:10:00,
2013-01-10 01:15:00,72.5,69.4,30.25,ENE,75,3.0,-999.0,90,0.00,,,0.00,Wunderground v.1.15,2013-01-10 06:15:00,
2013-01-10 01:20:00,72.6,69.5,30.25,ENE,74,4.0,-999.0,90,0.00,,,0.00,Wunderground v.1.15,2013-01-10 06:20:00,
2013-01-10 01:29:00,72.7,69.6,30.25,ENE,71,2.0,-999.0,90,0.00,,,0.00,Wunderground v.1.15,2013-01-10 06:29:00,
2013-01-10 01:35:00,72.8,69.7,30.25,ENE,77,2.0,-999.0,90,0.00,,,0.00,Wunderground v.1.15,2013-01-10 06:35:00,
2013-01-10 01:40:00,72.8,69.7,30.25,ENE,70,3.0,-999.0,90,0.00,,,0.00,Wunderground v.1.15,2013-01-10 06:40:00,
2013-01-10 01:45:00,72.8,69.7,30.25,ENE,71,3.0,-999.0,90,0.00,,,0.00,Wunderground v.1.15,2013-01-10 06:45:00,
2013-01-10 01:50:00,72.8,69.7,30.25,ENE,78,4.0,-999.0,90,0.00,,,0.00,Wunderground v.1.15,2013-01-10 06:50:00,
2013-01-10 01:59:00,72.8,69.7,30.25,ENE,75,3.0,-999.0,90,0.00,,,0.00,Wunderground v.1.15,2013-01-10 06:59:00,
2013-01-10 02:05:00,72.7,69.6,30.25,ENE,75,3.0,-999.0,90,0.00,,,0.00,Wunderground v.1.15,2013-01-10 07:05:00,
2013-01-10 02:15:00,72.8,69.7,30.25,ENE,75,4.0,-999.0,90,0.00,,,0.00,Wunderground v.1.15,2013-01-10 07:15:00,
2013-01-10 02:20:00,72.8,69.7,30.25,ENE,71,3.0,-999.0,90,0.00,,,0.00,Wunderground v.1.15,2013-01-10 07:20:00,
2013-01-10 02:25:00,72.7,69.6,30.25,ENE,76,2.0,-999.0,90,0.00,,,0.00,Wunderground v.1.15,2013-01-10 07:25:00,
2013-01-10 02:30:00,72.7,69.6,30.25,ENE,68,1.0,-999.0,90,0.00,,,0.00,Wunderground v.1.15,2013-01-10 07:30:00,
2013-01-10 02:35:00,72.6,69.5,30.25,ENE,68,1.0,-999.0,90,0.00,,,0.00,Wunderground v.1.15,2013-01-10 07:35:00,
2013-01-10 02:44:00,72.2,69.7,30.25,ENE,71,1.0,-999.0,92,0.00,,,0.00,Wunderground v.1.15,2013-01-10 07:44:00,
2013-01-10 02:49:00,71.8,69.3,30.25,ENE,70,1.0,-999.0,92,0.00,,,0.00,Wunderground v.1.15,2013-01-10 07:49:00,
2013-01-10 02:55:00,71.5,69.4,30.25,ENE,74,1.0,-999.0,93,0.00,,,0.00,Wunderground v.1.15,2013-01-10 07:55:00,
2013-01-10 03:00:00,71.3,69.2,30.25,ENE,74,2.0,-999.0,93,0.00,,,0.00,Wunderground v.1.15,2013-01-10 08:00:00,
2013-01-10 03:10:00,71.1,69.0,30.25,ENE,67,1.0,-999.0,93,0.00,,,0.00,Wunderground v.1.15,2013-01-10 08:10:00,
2013-01-10 03:15:00,71.0,68.9,30.25,ENE,67,1.0,-999.0,93,0.00,,,0.00,Wunderground v.1.15,2013-01-10 08:15:00,
2013-01-10 03:20:00,71.0,69.2,30.25,ENE,67,1.0,-999.0,94,0.00,,,0.00,Wunderground v.1.15,2013-01-10 08:20:00,
2013-01-10 03:25:00,71.0,68.9,30.25,ENE,70,1.0,-999.0,93,0.00,,,0.00,Wunderground v.1.15,2013-01-10 08:25:00,
2013-01-10 03:30:00,70.9,68.8,30.25,ENE,65,1.0,-999.0,93,0.00,,,0.00,Wunderground v.1.15,2013-01-10 08:30:00,
2013-01-10 03:39:00,70.8,69.0,30.25,ENE,69,2.0,-999.0,94,0.00,,,0.00,Wunderground v.1.15,2013-01-10 08:39:00,
2013-01-10 03:45:00,70.8,69.0,30.25,ENE,71,2.0,-999.0,94,0.00,,,0.00,Wunderground v.1.15,2013-01-10 08:45:00,
2013-01-10 03:50:00,70.8,69.0,30.25,ENE,71,2.0,-999.0,94,0.00,,,0.00,Wunderground v.1.15,2013-01-10 08:50:00,
2013-01-10 03:55:00,70.8,69.0,30.24,East,86,3.0,-999.0,94,0.00,,,0.00,Wunderground v.1.15,2013-01-10 08:55:00,
2013-01-10 04:00:00,70.8,68.7,30.24,ENE,67,3.0,-999.0,93,0.00,,,0.00,Wunderground v.1.15,2013-01-10 09:00:00,
2013-01-10 04:10:00,70.7,68.6,30.24,ENE,69,2.0,-999.0,93,0.00,,,0.00,Wunderground v.1.15,2013-01-10 09:10:00,
2013-01-10 04:20:00,70.7,68.6,30.24,ENE,77,3.0,-999.0,93,0.00,,,0.00,Wunderground v.1.15,2013-01-10 09:20:00,
2013-01-10 04:25:00,70.6,68.5,30.24,East,82,4.0,-999.0,93,0.00,,,0.00,Wunderground v.1.15,2013-01-10 09:25:00,
2013-01-10 04:35:00,70.6,68.5,30.24,ENE,74,4.0,-999.0,93,0.00,,,0.00,Wunderground v.1.15,2013-01-10 09:35:00,
2013-01-10 04:40:00,70.6,68.5,30.24,ENE,69,4.0,-999.0,93,0.00,,,0.00,Wunderground v.1.15,2013-01-10 09:40:00,
2013-01-10 04:45:00,70.6,68.5,30.24,ENE,71,3.0,-999.0,93,0.00,,,0.00,Wunderground v.1.15,2013-01-10 09:45:00,
2013-01-10 04:55:00,70.7,68.6,30.24,ENE,72,4.0,-999.0,93,0.00,,,0.00,Wunderground v.1.15,2013-01-10 09:55:00,
2013-01-10 05:00:00,70.6,68.5,30.24,ENE,72,3.0,-999.0,93,0.00,,,0.00,Wunderground v.1.15,2013-01-10 10:00:00,
2013-01-10 05:09:00,70.6,68.5,30.24,ENE,71,2.0,-999.0,93,0.00,,,0.00,Wunderground v.1.15,2013-01-10 10:09:00,
2013-01-10 05:15:00,70.5,68.4,30.24,ENE,71,2.0,-999.0,93,0.00,,,0.00,Wunderground v.1.15,2013-01-10 10:15:00,
2013-01-10 05:20:00,70.4,68.3,30.25,ENE,71,2.0,-999.0,93,0.00,,,0.00,Wunderground v.1.15,2013-01-10 10:20:00,
2013-01-10 05:25:00,70.4,68.3,30.25,ENE,71,2.0,-999.0,93,0.00,,,0.00,Wunderground v.1.15,2013-01-10 10:25:00,
2013-01-10 05:30:00,70.3,68.5,30.25,ENE,75,2.0,-999.0,94,0.00,,,0.00,Wunderground v.1.15,2013-01-10 10:30:00,
2013-01-10 05:35:00,70.3,68.5,30.25,ENE,74,2.0,-999.0,94,0.00,,,0.00,Wunderground v.1.15,2013-01-10 10:35:00,
2013-01-10 05:40:00,70.2,68.4,30.24,ENE,68,2.0,-999.0,94,0.00,,,0.00,Wunderground v.1.15,2013-01-10 10:40:00,
2013-01-10 05:45:00,70.2,68.4,30.25,ENE,71,2.0,-999.0,94,0.00,,,0.00,Wunderground v.1.15,2013-01-10 10:45:00,
2013-01-10 05:54:00,70.1,68.3,30.25,ENE,71,1.0,-999.0,94,0.00,,,0.00,Wunderground v.1.15,2013-01-10 10:54:00,
2013-01-10 06:00:00,70.0,68.2,30.25,ENE,71,2.0,-999.0,94,0.00,,,0.00,Wunderground v.1.15,2013-01-10 11:00:00,
2013-01-10 06:10:00,69.9,68.4,30.25,ENE,69,2.0,-999.0,95,0.00,,,0.00,Wunderground v.1.15,2013-01-10 11:10:00,
2013-01-10 06:15:00,69.9,68.4,30.25,ENE,67,1.0,-999.0,95,0.00,,,0.00,Wunderground v.1.15,2013-01-10 11:15:00,
2013-01-10 06:20:00,69.9,68.4,30.25,ENE,71,1.0,-999.0,95,0.00,,,0.00,Wunderground v.1.15,2013-01-10 11:20:00,
2013-01-10 06:25:00,69.9,68.4,30.25,ENE,71,1.0,-999.0,95,0.00,,,0.00,Wunderground v.1.15,2013-01-10 11:25:00,
2013-01-10 06:30:00,69.9,68.4,30.25,ENE,71,2.0,-999.0,95,0.00,,,0.00,Wunderground v.1.15,2013-01-10 11:30:00,
2013-01-10 06:40:00,69.9,68.4,30.25,ENE,72,2.0,-999.0,95,0.00,,,0.00,Wunderground v.1.15,2013-01-10 11:40:00,
2013-01-10 06:45:00,69.9,68.4,30.25,ENE,74,1.0,-999.0,95,0.00,,,0.00,Wunderground v.1.15,2013-01-10 11:45:00,
2013-01-10 06:50:00,69.9,68.4,30.25,ENE,76,2.0,-999.0,95,0.00,,,0.00,Wunderground v.1.15,2013-01-10 11:50:00,
2013-01-10 07:00:00,69.8,68.3,30.25,ENE,72,1.0,-999.0,95,0.00,,,0.00,Wunderground v.1.15,2013-01-10 12:00:00,
2013-01-10 07:10:00,69.7,68.2,30.25,ENE,67,2.0,-999.0,95,0.00,,,0.00,Wunderground v.1.15,2013-01-10 12:10:00,
2013-01-10 07:15:00,69.7,68.2,30.26,ENE,72,2.0,-999.0,95,0.00,,,0.00,Wunderground v.1.15,2013-01-10 12:15:00,
2013-01-10 07:20:00,69.7,68.2,30.26,ENE,71,1.0,-999.0,95,0.00,,,0.00,Wunderground v.1.15,2013-01-10 12:20:00,
2013-01-10 07:25:00,69.7,68.2,30.26,ENE,71,1.0,-999.0,95,0.00,,,0.00,Wunderground v.1.15,2013-01-10 12:25:00,
2013-01-10 07:35:00,69.8,68.3,30.26,ENE,71,1.0,-999.0,95,0.00,,,0.00,Wunderground v.1.15,2013-01-10 12:35:00,
2013-01-10 07:40:00,69.8,68.3,30.26,ENE,72,1.0,-999.0,95,0.00,,,0.00,Wunderground v.1.15,2013-01-10 12:40:00,
2013-01-10 07:50:00,70.1,68.6,30.26,ENE,70,3.0,-999.0,95,0.00,,,0.00,Wunderground v.1.15,2013-01-10 12:50:00,
2013-01-10 07:55:00,70.3,68.5,30.26,ENE,71,3.0,-999.0,94,0.00,,,0.00,Wunderground v.1.15,2013-01-10 12:55:00,
2013-01-10 08:00:00,70.5,68.7,30.26,ENE,70,4.0,-999.0,94,0.00,,,0.00,Wunderground v.1.15,2013-01-10 13:00:00,
2013-01-10 08:10:00,70.8,68.7,30.26,ENE,64,3.0,-999.0,93,0.00,,,0.00,Wunderground v.1.15,2013-01-10 13:10:00,
2013-01-10 08:15:00,71.0,68.9,30.26,ENE,78,3.0,-999.0,93,0.00,,,0.00,Wunderground v.1.15,2013-01-10 13:15:00,
2013-01-10 08:20:00,71.1,69.0,30.26,East,90,4.0,-999.0,93,0.00,,,0.00,Wunderground v.1.15,2013-01-10 13:20:00,
2013-01-10 08:25:00,71.2,68.8,30.26,ENE,78,4.0,-999.0,92,0.00,,,0.00,Wunderground v.1.15,2013-01-10 13:25:00,
2013-01-10 08:34:00,71.6,69.2,30.27,ENE,70,3.0,-999.0,92,0.00,,,0.00,Wunderground v.1.15,2013-01-10 13:34:00,
2013-01-10 08:39:00,71.8,69.0,30.27,ENE,69,4.0,-999.0,91,0.00,,,0.00,Wunderground v.1.15,2013-01-10 13:39:00,
2013-01-10 08:45:00,72.0,68.9,30.27,ENE,71,4.0,-999.0,90,0.00,,,0.00,Wunderground v.1.15,2013-01-10 13:45:00,
2013-01-10 08:50:00,72.3,69.2,30.27,East,84,4.0,-999.0,90,0.00,,,0.00,Wunderground v.1.15,2013-01-10 13:50:00,
2013-01-10 08:55:00,72.8,69.4,30.27,ENE,76,3.0,-999.0,89,0.00,,,0.00,Wunderground v.1.15,2013-01-10 13:55:00,
2013-01-10 09:05:00,73.8,69.3,30.28,ENE,67,5.0,-999.0,86,0.00,,,0.00,Wunderground v.1.15,2013-01-10 14:05:00,
2013-01-10 09:10:00,74.1,70.0,30.28,East,82,5.0,-999.0,87,0.00,,,0.00,Wunderground v.1.15,2013-01-10 14:10:00,
2013-01-10 09:15:00,74.4,69.6,30.28,ENE,74,5.0,-999.0,85,0.00,,,0.00,Wunderground v.1.15,2013-01-10 14:15:00,
2013-01-10 09:20:00,74.6,69.4,30.27,ENE,74,6.0,-999.0,84,0.00,,,0.00,Wunderground v.1.15,2013-01-10 14:20:00,
2013-01-10 09:30:00,74.9,69.4,30.27,ENE,74,7.0,-999.0,83,0.00,,,0.00,Wunderground v.1.15,2013-01-10 14:30:00,
2013-01-10 09:35:00,75.1,69.6,30.27,ENE,74,7.0,-999.0,83,0.00,,,0.00,Wunderground v.1.15,2013-01-10 14:35:00,
2013-01-10 09:40:00,75.3,69.4,30.27,East,86,7.0,-999.0,82,0.00,,,0.00,Wunderground v.1.15,2013-01-10 14:40:00,
2013-01-10 09:49:00,75.5,69.3,30.26,ENE,69,8.0,-999.0,81,0.00,,,0.00,Wunderground v.1.15,2013-01-10 14:49:00,
2013-01-10 09:54:00,75.8,69.6,30.26,East,82,8.0,-999.0,81,0.00,,,0.00,Wunderground v.1.15,2013-01-10 14:54:00,
2013-01-10 09:59:00,76.1,69.5,30.26,East,84,7.0,-999.0,80,0.00,,,0.00,Wunderground v.1.15,2013-01-10 14:59:00,
2013-01-10 10:05:00,76.4,69.4,30.26,ENE,76,7.0,-999.0,79,0.00,,,0.00,Wunderground v.1.15,2013-01-10 15:05:00,
2013-01-10 10:10:00,76.8,69.4,30.26,ENE,74,7.0,-999.0,78,0.00,,,0.00,Wunderground v.1.15,2013-01-10 15:10:00,
2013-01-10 10:15:00,77.0,68.5,30.25,ENE,69,7.0,-999.0,75,0.00,,,0.00,Wunderground v.1.15,2013-01-10 15:15:00,
2013-01-10 10:20:00,77.1,68.2,30.25,East,82,9.0,-999.0,74,0.00,,,0.00,Wunderground v.1.15,2013-01-10 15:20:00,
2013-01-10 10:30:00,77.6,67.9,30.25,East,92,8.0,-999.0,72,0.00,,,0.00,Wunderground v.1.15,2013-01-10 15:30:00,
2013-01-10 10:35:00,78.0,68.2,30.25,ENE,76,7.0,-999.0,72,0.00,,,0.00,Wunderground v.1.15,2013-01-10 15:35:00,
2013-01-10 10:40:00,78.2,67.6,30.24,ENE,65,7.0,-999.0,70,0.00,,,0.00,Wunderground v.1.15,2013-01-10 15:40:00,
2013-01-10 10:45:00,78.2,67.6,30.24,East,86,9.0,-999.0,70,0.00,,,0.00,Wunderground v.1.15,2013-01-10 15:45:00,
2013-01-10 10:54:00,78.4,66.5,30.23,ENE,72,10.0,-999.0,67,0.00,,,0.00,Wunderground v.1.15,2013-01-10 15:54:00,
2013-01-10 10:59:00,78.4,66.1,30.23,East,88,11.0,-999.0,66,0.00,,,0.00,Wunderground v.1.15,2013-01-10 15:59:00,
2013-01-10 11:05:00,78.6,66.3,30.22,East,94,11.0,-999.0,66,0.00,,,0.00,Wunderground v.1.15,2013-01-10 16:05:00,
2013-01-10 11:10:00,78.9,66.1,30.22,ESE,111,10.0,-999.0,65,0.00,,,0.00,Wunderground v.1.15,2013-01-10 16:10:00,
2013-01-10 11:15:00,79.0,66.7,30.22,ESE,107,10.0,-999.0,66,0.00,,,0.00,Wunderground v.1.15,2013-01-10 16:15:00,
2013-01-10 11:25:00,79.6,66.3,30.21,East,89,8.0,-999.0,64,0.00,,,0.00,Wunderground v.1.15,2013-01-10 16:25:00,
2013-01-10 11:30:00,79.8,66.1,30.21,ENE,73,8.0,-999.0,63,0.00,,,0.00,Wunderground v.1.15,2013-01-10 16:30:00,
2013-01-10 11:35:00,79.8,65.6,30.20,East,101,9.0,-999.0,62,0.00,,,0.00,Wunderground v.1.15,2013-01-10 16:35:00,
2013-01-10 11:40:00,79.8,65.6,30.20,East,79,11.0,-999.0,62,0.00,,,0.00,Wunderground v.1.15,2013-01-10 16:40:00,
2013-01-10 11:45:00,79.7,65.5,30.20,ENE,76,12.0,-999.0,62,0.00,,,0.00,Wunderground v.1.15,2013-01-10 16:45:00,
2013-01-10 11:50:00,79.9,66.2,30.19,NE,53,10.0,-999.0,63,0.00,,,0.00,Wunderground v.1.15,2013-01-10 16:50:00,
2013-01-10 11:55:00,80.2,66.0,30.19,East,86,10.0,-999.0,62,0.00,,,0.00,Wunderground v.1.15,2013-01-10 16:55:00,
2013-01-10 12:05:00,80.0,64.9,30.18,East,90,11.0,-999.0,60,0.00,,,0.00,Wunderground v.1.15,2013-01-10 17:05:00,
2013-01-10 12:14:00,79.6,65.0,30.18,East,96,10.0,-999.0,61,0.00,,,0.00,Wunderground v.1.15,2013-01-10 17:14:00,
2013-01-10 12:19:00,79.7,65.1,30.18,East,83,10.0,-999.0,61,0.00,,,0.00,Wunderground v.1.15,2013-01-10 17:19:00,
2013-01-10 12:25:00,80.5,63.9,30.18,East,84,9.0,-999.0,57,0.00,,,0.00,Wunderground v.1.15,2013-01-10 17:25:00,
2013-01-10 12:30:00,80.5,63.9,30.17,ENE,74,9.0,-999.0,57,0.00,,,0.00,Wunderground v.1.15,2013-01-10 17:30:00,
2013-01-10 12:35:00,80.4,64.3,30.17,ENE,72,9.0,-999.0,58,0.00,,,0.00,Wunderground v.1.15,2013-01-10 17:35:00,
2013-01-10 12:44:00,81.0,64.3,30.17,ENE,76,9.0,-999.0,57,0.00,,,0.00,Wunderground v.1.15,2013-01-10 17:44:00,
2013-01-10 12:50:00,81.5,63.8,30.17,East,80,8.0,-999.0,55,0.00,,,0.00,Wunderground v.1.15,2013-01-10 17:50:00,
2013-01-10 13:00:00,81.7,64.0,30.17,ENE,73,8.0,-999.0,55,0.00,,,0.00,Wunderground v.1.15,2013-01-10 18:00:00,
2013-01-10 13:05:00,81.9,64.1,30.17,ENE,71,6.0,-999.0,55,0.00,,,0.00,Wunderground v.1.15,2013-01-10 18:05:00,
2013-01-10 13:15:00,81.1,62.3,30.18,East,84,7.0,-999.0,53,0.00,,,0.00,Wunderground v.1.15,2013-01-10 18:15:00,
2013-01-10 13:20:00,81.1,62.9,30.18,East,80,7.0,-999.0,54,0.00,,,0.00,Wunderground v.1.15,2013-01-10 18:20:00,
2013-01-10 13:25:00,80.9,62.7,30.17,ENE,72,6.0,-999.0,54,0.00,,,0.00,Wunderground v.1.15,2013-01-10 18:25:00,
2013-01-10 13:30:00,81.4,63.2,30.17,ENE,69,7.0,-999.0,54,0.00,,,0.00,Wunderground v.1.15,2013-01-10 18:30:00,
2013-01-10 13:39:00,82.1,63.8,30.17,SSE,158,6.0,-999.0,54,0.00,,,0.00,Wunderground v.1.15,2013-01-10 18:39:00,
2013-01-10 13:45:00,82.5,64.2,30.17,East,88,6.0,-999.0,54,0.00,,,0.00,Wunderground v.1.15,2013-01-10 18:45:00,
2013-01-10 13:50:00,82.1,63.3,30.17,ENE,76,7.0,-999.0,53,0.00,,,0.00,Wunderground v.1.15,2013-01-10 18:50:00,
2013-01-10 13:55:00,81.4,62.6,30.18,East,90,7.0,-999.0,53,0.00,,,0.00,Wunderground v.1.15,2013-01-10 18:55:00,
2013-01-10 14:00:00,81.1,63.4,30.18,ENE,73,6.0,-999.0,55,0.00,,,0.00,Wunderground v.1.15,2013-01-10 19:00:00,
2013-01-10 14:09:00,80.7,63.5,30.17,ENE,72,5.0,-999.0,56,0.00,,,0.00,Wunderground v.1.15,2013-01-10 19:09:00,
2013-01-10 14:14:00,81.3,64.1,30.18,ENE,67,5.0,-999.0,56,0.00,,,0.00,Wunderground v.1.15,2013-01-10 19:14:00,
2013-01-10 14:20:00,81.5,63.8,30.18,ENE,74,5.0,-999.0,55,0.00,,,0.00,Wunderground v.1.15,2013-01-10 19:20:00,
2013-01-10 14:25:00,81.5,63.8,30.18,ENE,64,6.0,-999.0,55,0.00,,,0.00,Wunderground v.1.15,2013-01-10 19:25:00,
2013-01-10 14:30:00,82.1,63.3,30.17,ENE,71,5.0,-999.0,53,0.00,,,0.00,Wunderground v.1.15,2013-01-10 19:30:00,
2013-01-10 14:35:00,82.6,63.2,30.18,ENE,72,4.0,-999.0,52,0.00,,,0.00,Wunderground v.1.15,2013-01-10 19:35:00,
2013-01-10 14:45:00,83.0,63.6,30.18,East,80,5.0,-999.0,52,0.00,,,0.00,Wunderground v.1.15,2013-01-10 19:45:00,
2013-01-10 14:55:00,82.9,64.0,30.18,East,94,4.0,-999.0,53,0.00,,,0.00,Wunderground v.1.15,2013-01-10 19:55:00,
2013-01-10 15:00:00,83.0,64.6,30.18,ENE,73,4.0,-999.0,54,0.00,,,0.00,Wunderground v.1.15,2013-01-10 20:00:00,
2013-01-10 15:09:00,82.9,63.5,30.18,East,86,5.0,-999.0,52,0.00,,,0.00,Wunderground v.1.15,2013-01-10 20:09:00,
2013-01-10 15:15:00,82.8,63.4,30.18,ENE,69,5.0,-999.0,52,0.00,,,0.00,Wunderground v.1.15,2013-01-10 20:15:00,
2013-01-10 15:20:00,82.9,65.1,30.18,ENE,76,4.0,-999.0,55,0.00,,,0.00,Wunderground v.1.15,2013-01-10 20:20:00,
2013-01-10 15:25:00,82.7,63.8,30.18,East,84,5.0,-999.0,53,0.00,,,0.00,Wunderground v.1.15,2013-01-10 20:25:00,
2013-01-10 15:30:00,82.8,63.4,30.18,NE,49,5.0,-999.0,52,0.00,,,0.00,Wunderground v.1.15,2013-01-10 20:30:00,
2013-01-10 15:40:00,82.7,64.4,30.19,ESE,107,6.0,-999.0,54,0.00,,,0.00,Wunderground v.1.15,2013-01-10 20:40:00,
2013-01-10 15:45:00,82.5,64.7,30.19,ENE,71,5.0,-999.0,55,0.00,,,0.00,Wunderground v.1.15,2013-01-10 20:45:00,
2013-01-10 15:50:00,82.9,64.0,30.19,ENE,71,5.0,-999.0,53,0.00,,,0.00,Wunderground v.1.15,2013-01-10 20:50:00,
2013-01-10 15:55:00,83.0,64.6,30.19,ENE,76,4.0,-999.0,54,0.00,,,0.00,Wunderground v.1.15,2013-01-10 20:55:00,
2013-01-10 16:00:00,82.9,64.5,30.20,East,79,4.0,-999.0,54,0.00,,,0.00,Wunderground v.1.15,2013-01-10 21:00:00,
2013-01-10 16:10:00,82.0,64.8,30.20,ENE,72,3.0,-999.0,56,0.00,,,0.00,Wunderground v.1.15,2013-01-10 21:10:00,
2013-01-10 16:15:00,81.6,64.9,30.20,East,94,2.0,-999.0,57,0.00,,,0.00,Wunderground v.1.15,2013-01-10 21:15:00,
2013-01-10 16:20:00,81.2,64.0,30.20,ENE,78,2.0,-999.0,56,0.00,,,0.00,Wunderground v.1.15,2013-01-10 21:20:00,
2013-01-10 16:30:00,80.7,64.1,30.21,East,83,3.0,-999.0,57,0.00,,,0.00,Wunderground v.1.15,2013-01-10 21:30:00,
2013-01-10 16:40:00,80.5,64.4,30.21,East,80,2.0,-999.0,58,0.00,,,0.00,Wunderground v.1.15,2013-01-10 21:40:00,
2013-01-10 16:50:00,80.3,64.7,30.21,ENE,73,4.0,-999.0,59,0.00,,,0.00,Wunderground v.1.15,2013-01-10 21:50:00,
2013-01-10 16:55:00,80.2,65.1,30.21,East,86,5.0,-999.0,60,0.00,,,0.00,Wunderground v.1.15,2013-01-10 21:55:00,
2013-01-10 17:00:00,80.2,65.1,30.21,East,79,4.0,-999.0,60,0.00,,,0.00,Wunderground v.1.15,2013-01-10 22:00:00,
2013-01-10 17:09:00,80.2,64.6,30.21,ENE,78,3.0,-999.0,59,0.00,,,0.00,Wunderground v.1.15,2013-01-10 22:09:00,
2013-01-10 17:14:00,80.2,64.6,30.21,East,92,5.0,-999.0,59,0.00,,,0.00,Wunderground v.1.15,2013-01-10 22:14:00,
2013-01-10 17:20:00,80.0,64.9,30.21,ENE,71,5.0,-999.0,60,0.00,,,0.00,Wunderground v.1.15,2013-01-10 22:20:00,
2013-01-10 17:25:00,79.7,64.6,30.21,ENE,71,5.0,-999.0,60,0.00,,,0.00,Wunderground v.1.15,2013-01-10 22:25:00,
2013-01-10 17:30:00,79.4,64.3,30.21,ENE,74,4.0,-999.0,60,0.00,,,0.00,Wunderground v.1.15,2013-01-10 22:30:00,
2013-01-10 17:35:00,79.1,64.5,30.21,ENE,72,4.0,-999.0,61,0.00,,,0.00,Wunderground v.1.15,2013-01-10 22:35:00,
2013-01-10 17:45:00,78.5,64.4,30.21,East,86,6.0,-999.0,62,0.00,,,0.00,Wunderground v.1.15,2013-01-10 22:45:00,
2013-01-10 17:50:00,78.3,64.2,30.21,East,79,6.0,-999.0,62,0.00,,,0.00,Wunderground v.1.15,2013-01-10 22:50:00,
2013-01-10 17:55:00,78.1,64.5,30.21,East,83,6.0,-999.0,63,0.00,,,0.00,Wunderground v.1.15,2013-01-10 22:55:00,
2013-01-10 18:00:00,77.8,64.2,30.21,East,79,6.0,-999.0,63,0.00,,,0.00,Wunderground v.1.15,2013-01-10 23:00:00,
2013-01-10 18:10:00,77.4,64.3,30.22,ENE,77,5.0,-999.0,64,0.00,,,0.00,Wunderground v.1.15,2013-01-10 23:10:00,
2013-01-10 18:15:00,77.2,64.1,30.21,East,80,5.0,-999.0,64,0.00,,,0.00,Wunderground v.1.15,2013-01-10 23:15:00,
2013-01-10 18:20:00,77.1,64.4,30.21,ENE,72,4.0,-999.0,65,0.00,,,0.00,Wunderground v.1.15,2013-01-10 23:20:00,
2013-01-10 18:25:00,76.9,63.8,30.21,East,82,5.0,-999.0,64,0.00,,,0.00,Wunderground v.1.15,2013-01-10 23:25:00,
2013-01-10 18:30:00,76.8,64.1,30.21,East,84,4.0,-999.0,65,0.00,,,0.00,Wunderground v.1.15,2013-01-10 23:30:00,
2013-01-10 18:40:00,76.4,63.8,30.21,ENE,76,4.0,-999.0,65,0.00,,,0.00,Wunderground v.1.15,2013-01-10 23:40:00,
2013-01-10 18:45:00,76.4,63.8,30.22,ENE,72,4.0,-999.0,65,0.00,,,0.00,Wunderground v.1.15,2013-01-10 23:45:00,
2013-01-10 18:50:00,76.3,63.7,30.22,ENE,68,4.0,-999.0,65,0.00,,,0.00,Wunderground v.1.15,2013-01-10 23:50:00,
2013-01-10 19:00:00,75.9,63.7,30.22,ENE,72,3.0,-999.0,66,0.00,,,0.00,Wunderground v.1.15,2013-01-11 00:00:00,
2013-01-10 19:10:00,75.5,63.8,30.22,ENE,75,4.0,-999.0,67,0.00,,,0.00,Wunderground v.1.15,2013-01-11 00:10:00,
2013-01-10 19:19:00,75.3,64.0,30.22,ENE,67,5.0,-999.0,68,0.00,,,0.00,Wunderground v.1.15,2013-01-11 00:19:00,
2013-01-10 19:25:00,75.1,64.2,30.22,ENE,76,4.0,-999.0,69,0.00,,,0.00,Wunderground v.1.15,2013-01-11 00:25:00,
2013-01-10 19:30:00,74.9,64.0,30.22,East,80,5.0,-999.0,69,0.00,,,0.00,Wunderground v.1.15,2013-01-11 00:30:00,
2013-01-10 19:35:00,74.8,63.9,30.22,ENE,73,5.0,-999.0,69,0.00,,,0.00,Wunderground v.1.15,2013-01-11 00:35:00,
2013-01-10 19:40:00,74.6,64.6,30.22,ENE,74,3.0,-999.0,71,0.00,,,0.00,Wunderground v.1.15,2013-01-11 00:40:00,
2013-01-10 19:45:00,74.4,64.4,30.23,ENE,69,3.0,-999.0,71,0.00,,,0.00,Wunderground v.1.15,2013-01-11 00:45:00,
2013-01-10 19:50:00,74.3,64.3,30.23,ENE,69,2.0,-999.0,71,0.00,,,0.00,Wunderground v.1.15,2013-01-11 00:50:00,
2013-01-10 19:55:00,74.1,64.1,30.23,ENE,70,0.0,-999.0,71,0.00,,,0.00,Wunderground v.1.15,2013-01-11 00:55:00,
2013-01-10 20:00:00,73.8,63.8,30.23,ENE,69,0.0,-999.0,71,0.00,,,0.00,Wunderground v.1.15,2013-01-11 01:00:00,
2013-01-10 20:09:00,73.3,64.1,30.23,East,79,2.0,-999.0,73,0.00,,,0.00,Wunderground v.1.15,2013-01-11 01:09:00,
2013-01-10 20:14:00,73.1,64.3,30.23,ENE,78,4.0,-999.0,74,0.00,,,0.00,Wunderground v.1.15,2013-01-11 01:14:00,
2013-01-10 20:19:00,73.1,64.3,30.23,ENE,68,4.0,-999.0,74,0.00,,,0.00,Wunderground v.1.15,2013-01-11 01:19:00,
2013-01-10 20:24:00,73.0,64.2,30.23,ENE,71,4.0,-999.0,74,0.00,,,0.00,Wunderground v.1.15,2013-01-11 01:24:00,
2013-01-10 20:30:00,73.0,64.2,30.23,ENE,77,5.0,-999.0,74,0.00,,,0.00,Wunderground v.1.15,2013-01-11 01:30:00,
2013-01-10 20:35:00,72.9,64.5,30.23,East,80,4.0,-999.0,75,0.00,,,0.00,Wunderground v.1.15,2013-01-11 01:35:00,
2013-01-10 20:40:00,72.7,64.3,30.24,East,84,4.0,-999.0,75,0.00,,,0.00,Wunderground v.1.15,2013-01-11 01:40:00,
2013-01-10 20:45:00,72.6,64.2,30.24,ENE,69,4.0,-999.0,75,0.00,,,0.00,Wunderground v.1.15,2013-01-11 01:45:00,
2013-01-10 20:50:00,72.6,64.6,30.24,ENE,74,5.0,-999.0,76,0.00,,,0.00,Wunderground v.1.15,2013-01-11 01:50:00,
2013-01-10 20:59:00,72.5,64.5,30.24,ENE,78,5.0,-999.0,76,0.00,,,0.00,Wunderground v.1.15,2013-01-11 01:59:00,
2013-01-10 21:05:00,72.4,64.0,30.24,ENE,70,5.0,-999.0,75,0.00,,,0.00,Wunderground v.1.15,2013-01-11 02:05:00,
2013-01-10 21:10:00,72.3,64.3,30.25,ENE,69,4.0,-999.0,76,0.00,,,0.00,Wunderground v.1.15,2013-01-11 02:10:00,
2013-01-10 21:19:00,72.0,64.4,30.25,ENE,71,2.0,-999.0,77,0.00,,,0.00,Wunderground v.1.15,2013-01-11 02:19:00,
2013-01-10 21:24:00,71.8,63.8,30.25,ENE,71,1.0,-999.0,76,0.00,,,0.00,Wunderground v.1.15,2013-01-11 02:24:00,
2013-01-10 21:30:00,71.7,64.1,30.25,ENE,71,0.0,-999.0,77,0.00,,,0.00,Wunderground v.1.15,2013-01-11 02:30:00,
2013-01-10 21:35:00,71.5,64.3,30.25,ENE,71,0.0,-999.0,78,0.00,,,0.00,Wunderground v.1.15,2013-01-11 02:35:00,
2013-01-10 21:40:00,71.4,64.5,30.25,ENE,71,1.0,-999.0,79,0.00,,,0.00,Wunderground v.1.15,2013-01-11 02:40:00,
2013-01-10 21:49:00,71.1,64.6,30.25,ENE,75,2.0,-999.0,80,0.00,,,0.00,Wunderground v.1.15,2013-01-11 02:49:00,
2013-01-10 21:54:00,70.9,64.4,30.25,ENE,71,2.0,-999.0,80,0.00,,,0.00,Wunderground v.1.15,2013-01-11 02:54:00,
2013-01-10 22:00:00,70.8,64.3,30.25,ENE,69,1.0,-999.0,80,0.00,,,0.00,Wunderground v.1.15,2013-01-11 03:00:00,
2013-01-10 22:10:00,70.5,64.4,30.25,ENE,72,1.0,-999.0,81,0.00,,,0.00,Wunderground v.1.15,2013-01-11 03:10:00,
2013-01-10 22:15:00,70.4,64.6,30.25,ENE,70,1.0,-999.0,82,0.00,,,0.00,Wunderground v.1.15,2013-01-11 03:15:00,
2013-01-10 22:20:00,70.3,64.2,30.26,ENE,73,1.0,-999.0,81,0.00,,,0.00,Wunderground v.1.15,2013-01-11 03:20:00,
2013-01-10 22:25:00,70.2,64.4,30.26,ENE,69,0.0,-999.0,82,0.00,,,0.00,Wunderground v.1.15,2013-01-11 03:25:00,
2013-01-10 22:30:00,70.1,64.7,30.25,ENE,72,0.0,-999.0,83,0.00,,,0.00,Wunderground v.1.15,2013-01-11 03:30:00,
2013-01-10 22:35:00,69.9,64.5,30.25,ENE,69,0.0,-999.0,83,0.00,,,0.00,Wunderground v.1.15,2013-01-11 03:35:00,
2013-01-10 22:44:00,69.8,64.7,30.25,ENE,76,1.0,-999.0,84,0.00,,,0.00,Wunderground v.1.15,2013-01-11 03:44:00,
2013-01-10 22:50:00,69.8,65.1,30.25,ENE,78,2.0,-999.0,85,0.00,,,0.00,Wunderground v.1.15,2013-01-11 03:50:00,
2013-01-10 22:55:00,69.8,65.1,30.25,ENE,71,3.0,-999.0,85,0.00,,,0.00,Wunderground v.1.15,2013-01-11 03:55:00,
2013-01-10 23:00:00,69.7,65.3,30.25,East,82,3.0,-999.0,86,0.00,,,0.00,Wunderground v.1.15,2013-01-11 04:00:00,
2013-01-10 23:10:00,69.5,65.1,30.26,ENE,76,4.0,-999.0,86,0.00,,,0.00,Wunderground v.1.15,2013-01-11 04:10:00,
2013-01-10 23:15:00,69.4,65.0,30.26,ENE,71,4.0,-999.0,86,0.00,,,0.00,Wunderground v.1.15,2013-01-11 04:15:00,
2013-01-10 23:20:00,69.3,64.9,30.26,ENE,78,3.0,-999.0,86,0.00,,,0.00,Wunderground v.1.15,2013-01-11 04:20:00,
2013-01-10 23:25:00,69.2,65.2,30.26,East,84,3.0,-999.0,87,0.00,,,0.00,Wunderground v.1.15,2013-01-11 04:25:00,
2013-01-10 23:30:00,69.1,65.1,30.26,ENE,69,3.0,-999.0,87,0.00,,,0.00,Wunderground v.1.15,2013-01-11 04:30:00,
2013-01-10 23:35:00,69.0,65.3,30.26,ENE,75,4.0,-999.0,88,0.00,,,0.00,Wunderground v.1.15,2013-01-11 04:35:00,
2013-01-10 23:40:00,69.0,65.3,30.26,ENE,76,3.0,-999.0,88,0.00,,,0.00,Wunderground v.1.15,2013-01-11 04:40:00,
2013-01-10 23:45:00,68.9,65.2,30.26,ENE,69,2.0,-999.0,88,0.00,,,0.00,Wunderground v.1.15,2013-01-11 04:45:00,
2013-01-10 23:50:00,68.9,65.5,30.25,ENE,72,3.0,-999.0,89,0.00,,,0.00,Wunderground v.1.15,2013-01-11 04:50:00,
2013-01-10 23:59:00,68.8,65.4,30.25,ENE,72,4.0,-999.0,89,0.00,,,0.00,Wunderground v.1.15,2013-01-11 04:59:00,